Regional Weather Roundup
Issued by NWS

Home | Current Version | Previous Version | Text Only | Print | Product List | Glossary On
Versions: 1 2 3 4 5 6 7 8 9 10 11 12 13 14 15 16 17 18 19 20 21 22 23 24 25 26 27 28 29 30 31 32 33 34 35 36 37 38 39 40 41 42 43 44 45 46 47 48 49 50
863
ASUS44 KJAN 291703
RWRMS

MISSISSIPPI HOURLY WEATHER ROUNDUP
NATIONAL WEATHER SERVICE JACKSON MS
1200 PM CDT SUN MAR 29 2015

NOTE: "FAIR: INDICATES FEW OR NO CLOUDS BELOW 12,000 FEET WITH NO
SIGNIFICANT WEATHER AND/OR OBSTRUCTIONS TO VISIBILITY.

MSZ001>002-007>008-010>013-018>021-025>028-034>036-291800-
NORTHWEST MISSISSIPPI

CITY           SKY/WX    TMP DP  RH WIND       PRES   REMARKS
CLARKSDALE     CLOUDY    55  41  58 S16       30.23F
CLEVELAND      CLOUDY    56  44  64 S15G21    30.22F
GREENWOOD      CLOUDY    61  39  44 SE14      30.25F
GREENVILLE     CLOUDY    59  43  55 S13       30.21F
OLIVE BRANCH   CLOUDY    48  34  57 S12G21    30.23F
OXFORD         CLOUDY    48  30  49 SE14      30.28F
TUNICA         PTSUNNY   52  37  58 S18       30.22F
$$

MSZ003>006-009-014>017-022>024-029>033-037>039-291800-
NORTHEAST MISSISSIPPI

CITY           SKY/WX    TMP DP  RH WIND       PRES   REMARKS
COLUMBUS AFB   CLOUDY    52  28  39 SE12      30.31F
CORINTH        CLOUDY    52  25  35 S16       30.27F
GOLDN TRIANGLE CLOUDY    54  30  40 S14       30.31F
STARKVILLE     CLOUDY    54  34  47 S10G16    30.31F
TUPELO         CLOUDY    50  28  42 S10       30.30F
$$

MSZ040-058-291800-
CENTRAL MISSISSIPPI

CITY           SKY/WX    TMP DP  RH WIND       PRES   REMARKS
JACKSON INTL   MOSUNNY   64  43  46 S10       30.27F
JACKSON HAWKNS SUNNY     64  43  46 S9        30.27F
MERIDIAN KEY   CLOUDY    62  37  39 SE9       30.31F
MERIDIAN NAS   NOT AVBL
RAYMOND        FAIR      64  59  82 S12       30.26F
VICKSBURG      SUNNY     65  48  54 S13       30.24F
$$

MSZ059>079-291800-
SOUTH MISSISSIPPI

CITY           SKY/WX    TMP DP  RH WIND       PRES   REMARKS
BROOKHAVEN     FAIR      66  54  63 S7        30.28F
HATTIESBURG    MOSUNNY   66  46  48 S9        30.32F
MCCOMB         SUNNY     68  52  56 S12G18    30.28F
NATCHEZ        SUNNY     72  55  56 S14G24    30.25F
PINE BELT      SUNNY     64  43  45 S12       30.32F
$$

MSZ080>082-291800-
COASTAL MISSISSIPPI

CITY           SKY/WX    TMP DP  RH WIND       PRES   REMARKS
BAY ST LOUIS   MOSUNNY   68  52  56 SE9G17    30.32F
BILOXI         MOSUNNY   67  55  64 SE15      30.33F
PASCAGOULA     PTSUNNY   65  52  62 SE13G23   30.34F
GULFPORT       MOSUNNY   66  55  67 SE16      30.33F
$$



USA.gov is the U.S. government's official web portal to all federal, state and local government web resources and services.